Simultaneous Nadir Overpasses (SNOs) Predictions

Prediction of SNOs between AURA and LANDSAT-8 Satellite Orbit:

Table of predicted SNOs for the next 14.0 days since TLE Epoch: 11/29/2025
Index Date (AURA) Time (AURA) Lat,Lon (AURA) SZA (AURA ) Date (LANDSAT-8) Time (LANDSAT-8) Lat,Lon (LANDSAT-8) SZA (LANDSAT-8 ) Distance(km) Time Diff (sec)
1 12/09/2025 00:04:28 -73.85, 3.97 83.32 12/09/2025 00:03:20 -73.86, 2.03 83.36 60.04 68
2 12/09/2025 00:53:52 74.07, 171.12 96.90 12/09/2025 00:52:42 74.03, 170.05 96.82 33.04 70
3 12/09/2025 01:43:14 -74.28, -21.68 82.91 12/09/2025 01:42:05 -74.27, -21.75 82.92 1.90 69
4 12/09/2025 02:32:34 74.30, 145.94 97.12 12/09/2025 02:31:30 74.29, 145.93 97.10 1.04 64
5 12/09/2025 03:21:52 -74.30, -46.39 82.89 12/09/2025 03:20:58 -74.27, -46.47 82.92 3.43 54
6 12/09/2025 04:11:12 74.32, 121.23 97.14 12/09/2025 04:10:23 74.29, 121.21 97.11 3.25 49
7 12/09/2025 05:00:30 -74.32, -71.09 82.86 12/09/2025 04:59:50 -74.33, -71.07 82.85 1.33 40
8 12/09/2025 05:49:49 74.34, 96.53 97.17 12/09/2025 05:49:14 74.34, 96.61 97.17 2.57 35
9 12/09/2025 06:39:07 -74.34, -95.79 82.84 12/09/2025 06:38:42 -74.33, -95.78 82.85 1.07 25
10 12/09/2025 07:28:27 74.36, 71.83 97.19 12/09/2025 07:28:07 74.34, 71.89 97.18 2.73 20
11 12/09/2025 08:17:45 -74.36,-120.50 82.81 12/09/2025 08:17:35 -74.33,-120.50 82.84 3.20 10
12 12/09/2025 09:07:04 74.33, 47.25 97.17 12/09/2025 09:07:00 74.34, 47.17 97.18 2.77 4
13 12/09/2025 09:56:23 -74.38,-145.20 82.79 12/09/2025 09:56:27 -74.38,-145.10 82.78 2.91 4
14 12/09/2025 10:45:42 74.35, 22.54 97.19 12/09/2025 10:45:53 74.34, 22.45 97.19 2.69 11
15 12/09/2025 11:35:01 -74.40,-169.90 82.76 12/09/2025 11:35:20 -74.38,-169.82 82.77 3.01 19
16 12/09/2025 12:24:20 74.37, -2.16 97.22 12/09/2025 12:24:45 74.39, -2.14 97.25 3.12 25
17 12/09/2025 13:13:38 -74.36, 165.52 82.78 12/09/2025 13:14:13 -74.38, 165.46 82.77 2.48 35
18 12/09/2025 14:02:58 74.39, -26.87 97.25 12/09/2025 14:03:38 74.39, -26.86 97.26 0.89 40
19 12/09/2025 14:52:16 -74.38, 140.81 82.76 12/09/2025 14:53:06 -74.38, 140.74 82.76 2.33 50
20 12/09/2025 15:41:36 74.41, -51.57 97.27 12/09/2025 15:42:31 74.39, -51.58 97.26 1.37 55
21 12/09/2025 16:30:54 -74.40, 116.11 82.73 12/09/2025 16:31:58 -74.43, 116.14 82.70 3.18 64
22 12/09/2025 17:20:14 74.43, -76.27 97.30 12/09/2025 17:21:23 74.45, -76.18 97.33 3.56 69
23 12/09/2025 18:09:37 -74.68, 90.77 82.47 12/09/2025 18:10:47 -74.64, 91.92 82.48 34.02 70
24 12/09/2025 18:59:01 74.90,-102.14 97.75 12/09/2025 19:00:08 74.85, -99.89 97.77 65.63 67



Historial Predications of SNOs between AURA and LANDSAT-8
